Location: Newark
(45.4422°N, 16.2769°E)
Time: 07:33:35
(UTC+00:00)

Courier 1B - Pass Details

Date: 13 December 2019
Orbit: 962 x 1209 km, 28.3° (Epoch: 27 January)

Event Time Altitude Azimuth Distance (km) Brightness Sun altitude
Rises 22:57:08 0° 250° (WSW) 4,000 - -67.7°
Reaches altitude 10° 23:01:20 10° 229° (SW) 3,079 - -67.6°
Maximum altitude 23:05:20 15° 197° (SSW) 2,739 - -67.5°
Drops below altitude 10° 23:09:24 10° 165° (SSE) 3,128 - -67.4°
Sets 23:13:44 0° 144° (SE) 4,101 - -67.2°
